Weather History for Kendall, FL

Change the Weather History Date:

Friday, November 22, 2013

  Actual Average Record
Temperature  
Mean Temperature 74 °F -  
Max Temperature 78 °F 80 °F 84 °F (1993)
Min Temperature 71 °F 63 °F 41 °F (2006)
Cooling Degree Days 10    
Growing Degree Days 24 (Base 50)    
Moisture  
Dew Point 72 °F    
Average Humidity 93    
Maximum Humidity 100    
Minimum Humidity 81    
Precipitation  
Precipitation 2.02 in - - ()
Sea Level Pressure  
Sea Level Pressure 30.09 in    
Wind  
Wind Speed 8 mph (ENE)    
Max Wind Speed 20 mph    
Max Gust Speed 28 mph    
Visibility 6 miles    
Events Rain    
Averages and records for this station are not official NWS values.
T = Trace of Precipitation, MM = Missing Value Source: NWS Daily Summary

Daily Weather History Graph

Daily Weather History Graph

Search for Another Location

Airport:

Trip Planner

Search our weather history database for the weather conditions in past years. The results will help you decide how hot, cold, wet, or windy it might be!

Date:

Astronomy

Nov. 22, 2013 Rise Set
Actual Time 6:44 AM EST 5:31 PM EST
Civil Twilight 6:20 AM EST 5:55 PM EST
Nautical Twilight 5:52 AM EST 6:23 PM EST
Astronomical Twilight 5:24 AM EST 6:51 PM EST
Moon 9:54 PM EST (11/22) 10:33 AM EST (11/22)
Length of Visible Light 11h 35m
Length of Day
10h 46m
Waning Gibbous, 78% of the Moon is Illuminated
Nov 22
Waning Gibbous
Nov 25
Last Quarter
Dec 2
New
Dec 9
First Quarter
Dec 17
Full

Hourly Weather History & Observations

Time (EST) Temp. Dew Point Humidity Pressure Visibility Wind Dir Wind Speed Gust Speed Precip Events Conditions
12:41 AM 73.4 °F 73.4 °F 100% 30.10 in 10.0 mi Calm Calm - 0.00 in Rain Light Rain
12:53 AM 75.0 °F 73.0 °F 94% 30.11 in 10.0 mi Calm Calm - 0.00 in   Overcast
1:07 AM 75.2 °F 73.4 °F 94% 30.11 in 10.0 mi Calm Calm - N/A   Overcast
1:53 AM 73.0 °F 72.0 °F 96% 30.09 in 10.0 mi East 4.6 mph - N/A   Scattered Clouds
2:53 AM 75.0 °F 73.0 °F 94% 30.09 in 10.0 mi NE 6.9 mph - N/A   Mostly Cloudy
3:44 AM 73.4 °F 71.6 °F 94% 30.09 in 10.0 mi East 8.1 mph - 0.00 in   Scattered Clouds
3:53 AM 73.9 °F 71.1 °F 91% 30.09 in 10.0 mi ENE 10.4 mph - 0.00 in   Scattered Clouds
4:53 AM 73.0 °F 71.1 °F 93% 30.09 in 10.0 mi NE 8.1 mph - N/A   Partly Cloudy
5:41 AM 73.4 °F 71.6 °F 94% 30.10 in 10.0 mi ENE 8.1 mph - 0.00 in   Overcast
5:50 AM 73.4 °F 71.6 °F 94% 30.10 in 10.0 mi NE 10.4 mph - 0.01 in Rain Light Rain
5:53 AM 73.9 °F 72.0 °F 93% 30.09 in 10.0 mi NE 9.2 mph - 0.01 in Rain Light Rain
6:11 AM 73.4 °F 71.6 °F 94% 30.10 in 2.0 mi ENE 12.7 mph - 0.20 in Rain Heavy Rain
6:13 AM 73.4 °F 71.6 °F 94% 30.10 in 2.0 mi ENE 10.4 mph - 0.21 in Rain Heavy Rain
6:15 AM 73.4 °F 71.6 °F 94% 30.10 in 1.8 mi ENE 9.2 mph - 0.23 in Rain Heavy Rain
6:20 AM 73.4 °F 73.4 °F 100% 30.10 in 3.0 mi ENE 9.2 mph - 0.23 in Rain Light Rain
6:53 AM 73.9 °F 73.0 °F 97% 30.11 in 10.0 mi NE 6.9 mph - 0.24 in Rain Light Rain
7:23 AM 75.2 °F 71.6 °F 89% 30.11 in 6.0 mi East 17.3 mph 24.2 mph 0.01 in Rain Light Rain
7:53 AM 75.0 °F 73.0 °F 94% 30.12 in 10.0 mi NE 6.9 mph - 0.01 in   Overcast
8:18 AM 77.0 °F 73.4 °F 89% 30.12 in 10.0 mi NE 8.1 mph - N/A   Overcast
8:53 AM 77.0 °F 73.0 °F 88% 30.13 in 10.0 mi ENE 8.1 mph - N/A   Overcast
9:21 AM 75.2 °F 71.6 °F 89% 30.13 in 9.0 mi ENE 16.1 mph - 0.05 in Rain Light Rain
9:37 AM 75.2 °F 73.4 °F 94% 30.14 in 4.0 mi East 16.1 mph 25.3 mph 0.07 in Rain Rain
9:39 AM 75.2 °F 71.6 °F 89% 30.14 in 3.0 mi East 17.3 mph 25.3 mph 0.08 in Rain Rain
9:46 AM 75.2 °F 73.4 °F 94% 30.14 in 1.8 mi East 11.5 mph 25.3 mph 0.20 in Rain Heavy Rain
9:53 AM 73.9 °F 73.0 °F 97% 30.14 in 3.0 mi East 8.1 mph - 0.23 in Rain Rain
10:24 AM 78.8 °F 75.2 °F 89% 30.13 in 3.0 mi ESE 8.1 mph - 0.00 in   Overcast
10:32 AM 78.8 °F 75.2 °F 89% 30.14 in 3.0 mi East 11.5 mph - 0.00 in   Overcast
10:53 AM 77.0 °F 73.9 °F 90% 30.13 in 10.0 mi ESE 8.1 mph - 0.01 in Rain Light Rain
11:02 AM 78.8 °F 73.4 °F 83% 30.13 in 10.0 mi East 10.4 mph - N/A   Scattered Clouds
11:53 AM 78.1 °F 72.0 °F 81% 30.11 in 10.0 mi East 13.8 mph - N/A   Mostly Cloudy
12:53 PM 75.9 °F 72.0 °F 87% 30.09 in 5.0 mi ENE 19.6 mph 27.6 mph 0.03 in Rain Light Rain
1:53 PM 75.0 °F 72.0 °F 90% 30.07 in 3.0 mi East 15.0 mph - 0.03 in Rain Rain
1:57 PM 75.2 °F 71.6 °F 89% 30.08 in 1.8 mi ENE 13.8 mph - 0.06 in Rain Heavy Rain
2:07 PM 73.4 °F 71.6 °F 94% 30.08 in 1.2 mi East 15.0 mph - 0.22 in Rain Heavy Rain
2:14 PM 73.4 °F 73.4 °F 100% 30.08 in 1.5 mi East 13.8 mph 21.9 mph 0.29 in Rain Heavy Rain
2:25 PM 73.4 °F 73.4 °F 100% 30.07 in 1.8 mi ENE 9.2 mph - 0.39 in Rain Heavy Rain
2:29 PM 73.4 °F 73.4 °F 100% 30.07 in 3.0 mi ENE 9.2 mph - 0.39 in Rain Light Rain
2:53 PM 73.9 °F 73.9 °F 100% 30.07 in 8.0 mi ENE 10.4 mph - 0.41 in Rain Light Rain
3:23 PM 73.4 °F 73.4 °F 100% 30.06 in 2.0 mi ENE 9.2 mph - 0.12 in Rain Rain
3:32 PM 75.2 °F 73.4 °F 94% 30.06 in 6.0 mi NE 8.1 mph - 0.14 in Rain Light Rain
3:53 PM 73.9 °F 73.0 °F 97% 30.07 in 5.0 mi ENE 13.8 mph 19.6 mph 0.16 in Rain Rain
4:53 PM 73.9 °F 72.0 °F 93% 30.07 in 8.0 mi NE 10.4 mph - 0.04 in Rain Light Rain
5:06 PM 73.4 °F 71.6 °F 94% 30.08 in 2.0 mi East 15.0 mph 23.0 mph 0.14 in Rain Light Rain
5:10 PM 73.4 °F 71.6 °F 94% 30.08 in 1.0 mi East 11.5 mph 23.0 mph 0.32 in Rain Heavy Rain
5:17 PM 71.6 °F 71.6 °F 100% 30.07 in 0.8 mi East 10.4 mph - 0.49 in Rain Heavy Rain
5:28 PM 73.4 °F 71.6 °F 94% 30.07 in 1.5 mi East 11.5 mph - 0.68 in Rain Rain
5:31 PM 73.4 °F 71.6 °F 94% 30.07 in 3.0 mi East 10.4 mph - 0.71 in Rain Rain
5:48 PM 73.4 °F 71.6 °F 94% 30.07 in 10.0 mi NE 3.5 mph - 0.72 in Rain Light Rain
5:53 PM 73.9 °F 72.0 °F 93% 30.07 in 10.0 mi NE 3.5 mph - 0.72 in Rain Light Rain
6:53 PM 73.0 °F 72.0 °F 96% 30.07 in 10.0 mi North 4.6 mph - N/A   Scattered Clouds
7:14 PM 73.4 °F 71.6 °F 94% 30.08 in 6.0 mi East 9.2 mph - 0.02 in Rain Rain
7:23 PM 73.4 °F 71.6 °F 94% 30.08 in 4.0 mi East 9.2 mph - 0.06 in Rain Light Rain
7:53 PM 73.9 °F 72.0 °F 93% 30.08 in 10.0 mi NE 6.9 mph - 0.09 in Rain Light Rain
8:53 PM 75.0 °F 72.0 °F 90% 30.08 in 10.0 mi ENE 9.2 mph - 0.00 in Rain Light Rain
9:48 PM 73.4 °F 71.6 °F 94% 30.08 in 10.0 mi NE 6.9 mph - 0.02 in   Overcast
9:53 PM 73.9 °F 72.0 °F 93% 30.08 in 10.0 mi ENE 6.9 mph - 0.02 in   Mostly Cloudy
10:19 PM 73.4 °F 71.6 °F 94% 30.09 in 10.0 mi NE 5.8 mph - N/A   Mostly Cloudy
10:53 PM 73.9 °F 72.0 °F 93% 30.09 in 10.0 mi NNE 3.5 mph - 0.01 in   Mostly Cloudy
11:53 PM 73.9 °F 72.0 °F 93% 30.07 in 10.0 mi NE 4.6 mph - 0.01 in Rain Light Rain